Regional Weather Roundup
Issued by NWS

Home | Current Version | Previous Version | Graphics & Text | Print | Product List | Glossary Off
Versions: 1 2 3 4 5 6 7 8 9 10 11 12 13 14 15 16 17 18 19 20 21 22 23 24 25 26 27 28 29 30 31 32 33 34 35 36 37 38 39 40 41 42 43 44 45 46 47 48 49 50

000
ASUS43 KTOP 301059
RWRKS

WEATHER ROUNDUP FOR KANSAS
NATIONAL WEATHER SERVICE GOODLAND KS
600 AM CDT MON MAR 30 2015

NOTE:  "FAIR" INDICATES FEW OR NO CLOUDS BELOW 12,000 FEET WITH NO
SIGNIFICANT WEATHER AND/OR OBSTRUCTIONS TO VISIBILITY.

KSZ001>006-013>018-027>032-041>047-301200-
NORTHWEST KANSAS

CITY           SKY/WX    TMP DP  RH WIND       PRES   REMARKS
GOODLAND       CLEAR     43  23  45 S17       30.11F
HAYS           CLEAR     37  18  44 SW6       30.16R
HILL CITY      CLEAR     42  17  36 SW5       30.14S
RUSSELL        CLEAR     36  24  62 S9        30.14S
$$

KSZ061>065-074>080-084>089-301200-
SOUTHWEST KANSAS

CITY           SKY/WX    TMP DP  RH WIND       PRES   REMARKS
DODGE CITY     CLEAR     39  24  55 SE8       30.17F
ELKHART          N/A     46  24  42 S8          N/A
GARDEN CITY    CLEAR     37  25  61 S9        30.16R
GREAT BEND     PTCLDY    30  19  64 SW9       30.18R
LIBERAL        CLEAR     39  27  60 S9        30.20S
$$

KSZ066>073-081>083-090>101-301200-
SOUTHEAST KANSAS

CITY           SKY/WX    TMP DP  RH WIND       PRES   REMARKS
CHANUTE        CLEAR     33  31  92 CALM      30.21R
COFFEYVILLE    CLEAR     35  33  92 CALM      30.21R
HUTCHINSON     CLEAR     35  27  72 SE3       30.18F
MEDICINE LODGE   N/A     36  30  79 CALM      30.19S
NEWTON         CLEAR     39  27  60 S5        30.21S
PARSONS        CLEAR     33  32  96 CALM      30.22R
WICHITA INTL   CLEAR     39  31  72 CALM      30.19S
WICHITA JABRA  CLEAR     38  32  79 S5        30.19S
WINFIELD       CLEAR     38  32  79 CALM      30.21S
$$

KSZ007>012-019>026-033>040-048>060-102>105-301200-
NORTHEAST KANSAS

CITY           SKY/WX    TMP DP  RH WIND       PRES   REMARKS
CONCORDIA      PTCLDY    45  28  51 S8        30.14F
EMPORIA        CLEAR     37  30  75 CALM      30.19R
LAWRENCE       CLEAR     29  25  85 CALM      30.18S
MANHATTAN      CLEAR     28  26  92 CALM      30.18S FOG
OLATHE IND     CLEAR     32  30  92 S5        30.18S
OLATHE EXE     CLEAR     36  34  92 CALM      30.17R
SALINA         CLEAR     32  22  66 S5        30.18S
TOPEKA BILLARD CLEAR     34  30  85 CALM      30.18S
TOPEKA FORBES  CLEAR     33  28  81 S5        30.17S
$$


USA.gov is the U.S. government's official web portal to all federal, state and local government web resources and services.